Regional Weather Roundup
Issued by NWS Cleveland, OH

Home | Current Version | Previous Version | Graphics & Text | Print | Product List | Glossary On
Versions: 1 2 3 4 5 6 7 8 9 10 11 12 13 14 15 16 17 18 19 20 21 22 23 24 25 26 27 28 29 30 31 32 33 34 35 36 37 38 39 40 41 42 43 44 45 46 47 48 49 50
113
ASUS41 KCLE 260012
RWRCLE
OHIO REGIONAL WEATHER ROUNDUP
NATIONAL WEATHER SERVICE WILMINGTON, OH
800 PM EDT TUE APR 25 2017

NOTE: "FAIR" INDICATES FEW OR NO CLOUDS BELOW 12,000 FEET WITH NO
SIGNIFICANT WEATHER AND/OR OBSTRUCTIONS TO VISIBILITY.

OHZ001>008-015>018-024>027-034-035-043-044-260100-
   NORTHWEST OHIO

CITY           SKY/WX    TMP DP  RH WIND       PRES   REMARKS
DEFIANCE       FAIR      73  52  47 SE6       29.66F
FINDLAY        FAIR      73  51  46 SE8       29.67F
TOLEDO EXPRESS FAIR      61  53  75 E12       29.69F
TOLEDO EXEC    FAIR      60  53  77 E10       29.71F
LIMA           FAIR      72  53  51 SE8       29.67F
$$

OHZ009>014-019>023-028>033-038-089-260100-
   NORTHEAST OHIO

CITY           SKY/WX    TMP DP  RH WIND       PRES   REMARKS
CLE-HOPKINS    MOCLDY    68  52  56 SE9       29.77F
CLE-LAKEFRONT  MOCLDY    69  52  54 SE10      29.74F
CUY CO. ARPT   PTCLDY    68  55  64 S12       29.78S
LORAIN-ELYRIA  FAIR      66  52  60 SE8       29.75S
ASHTABULA      CLOUDY    65  54  67 E10       29.81S
AKRON-CANTON   CLOUDY    66  53  63 SE10      29.78S
WOOSTER        FAIR      64  54  69 SE8       29.76F
MANSFIELD      FAIR      66  55  67 E13       29.74S
YOUNGSTOWN     CLOUDY    63  54  72 SE12      29.80S
$$

OHZ042-051>053-060>062-070>072-077>081-260100-
  SOUTHWEST OHIO

CITY           SKY/WX    TMP DP  RH WIND       PRES   REMARKS
CINC-COVINGTON FAIR      70  58  65 S8        29.68F
CINC-LUNKEN    FAIR      72  60  66 SE5       29.67F
HAMILTON       FAIR      74  57  55 S5        29.67F
DAYTON         FAIR      71  55  56 SE9       29.68F
WRIGHT-PAT AFB FAIR      74  55  50 SE8       29.68F
DAYTON GENERAL FAIR      72  56  57 SE8       29.67F
WILMINGTON     FAIR      70  58  65 SE3       29.69F
$$

OHZ036-037-039>041-045>050-054>059-063>069-073>076-082>088-260100-
  CENTRAL AND SOUTHEAST OHIO

CITY           SKY/WX    TMP DP  RH WIND       PRES   REMARKS
COLUMBUS       MOCLDY    72  55  55 SE8       29.71S
OSU AIRPORT    FAIR      70  55  59 SE10      29.71S
BOLTON FIELD   NOT AVBL
RICKENBACK AFB FAIR      69  55  59 E5        29.71S
NEWARK         FAIR      70  53  54 E7        29.72S
MARION         FAIR      71  53  52 S9        29.72S
LANCASTER      FAIR      69  56  62 E6        29.72F
ZANESVILLE     CLOUDY    69  54  58 E8        29.74S
NEW PHILLY     MOCLDY    66  55  67 E9        29.77S
$$




USA.gov is the U.S. government's official web portal to all federal, state and local government web resources and services.